Notices

What's New in latest Release from April 7th, 2021:

- Updated Glossary, including Speed of Maximum Gust, and Total Hourly Precipitation

- Updated national and regional climate services offices contacts and prices information

- Addition of station inventory lists for 1981-2010, 1971-2000, and 1961-1990 Normals.

If you haven't already, please take our survey and provide feedback about our website: https://eccc.sondage-survey.ca/f/LanguageSelection.aspx?s=442ca660-fcf1-47c0-95a9-59707d6fd709

Hourly Data Report for April 28, 2019

MIRAMICHI RCS
NEW BRUNSWICK
Current Station Operator: ECCC - MSC

47°00'34.000" N
65°27'54.000" W
33.00 m
8100989
71744
ACQ

Download Data

Hourly Data (April 2019)
Hourly Data Report for April 28, 2019
TIME
LST
Temp Definition
°C
Dew Point Definition
°C
Rel Hum Definition
%
Precip. Amount Definition
mm

Wind Dir Definition
10's deg

Wind Spd Definition
km/h
Visibility Definition
km
Stn Press Definition
kPa
Hmdx Definition


Wind Chill Definition


Weather Definition


00:00 5.6 4.2 91 0.0 20 18   99.65     LegendNANA
01:00 5.1 3.9 92 0.0 19 10   99.67     LegendNANA
02:00 4.9 3.5 91 0.0 18 12   99.70     LegendNANA
03:00 4.4 3.3 93 0.0 17 10   99.72     LegendNANA
04:00 4.1 3.2 94 0.0 19 9   99.74     LegendNANA
05:00 4.0 3.4 96 0.0 11 5   99.74     LegendNANA
06:00 4.3 3.7 96 0.0 19 8   99.79     LegendNANA
07:00 4.9 4.0 94 0.0 26 9   99.87     LegendNANA
08:00 5.8 4.6 92 0.0 25 11   99.91     LegendNANA
09:00 6.3 3.7 83 0.0 25 21   99.94     LegendNANA
10:00 7.7 3.7 76 0.0 25 19   99.99     LegendNANA
11:00 9.5 4.0 68 0.0 25 25   100.08     LegendNANA
12:00 9.1 2.9 65 0.0 25 23   100.13     LegendNANA
13:00 9.3 2.8 64 0.0 28 18   100.18     LegendNANA
14:00 10.3 2.3 58 0.0 28 22   100.19     LegendNANA
15:00 9.7 1.0 55 0.0 24 31   100.32     LegendNANA
16:00 9.4 0.6 54 0.0 25 27   100.41     LegendNANA
17:00 9.3 0.1 53 0.0 29 21   100.48     LegendNANA
18:00 8.0 -0.1 57 0.0 28 21   100.61     LegendNANA
19:00 6.8 -1.0 58 0.0 28 21   100.72     LegendNANA
20:00 5.4 -2.1 58 0.0 28 22   100.84     LegendNANA
21:00 3.9 -2.7 62 0.0 28 12   100.89     LegendNANA
22:00 2.7 -2.9 66 0.0 26 11   100.90     LegendNANA
23:00 1.4 -3.3 71 0.0 28 10   100.91     LegendNANA

Notes on Data Quality.

Legend

  • E = Estimated
  • M = Missing
  • NA = Not Available*
  • [empty] = Indicates an unobserved value
Date modified: